Regional Weather Roundup
Issued by NWS Newport/Morehead, NC

Current Version | Previous Version | Graphics & Text | Print | Product List | Glossary On
Versions: 1 2 3 4 5 6 7 8 9 10 11 12 13 14 15 16 17 18 19 20 21 22 23 24 25 26 27 28 29 30 31 32 33 34 35 36 37 38 39 40 41 42 43 44 45 46 47 48 49 50
000
ASUS42 KMHX 061312
RWRMHX
WEATHER ROUNDUP FOR EASTERN NORTH CAROLINA
NATIONAL WEATHER SERVICE NEWPORT/MOREHEAD CITY NC
800 AM EST FRI MAR 06 2015

NOTE: "FAIR" INDICATES FEW OR NO CLOUDS BELOW 12,000 FEET
WITH NO SIGNIFICANT WEATHER AND/OR OBSTRUCTIONS TO VISIBILITY

NCZ015>017-031-032-045>047-102-103-061400-
NORTH COAST

CITY           SKY/WX    TMP DP  RH WIND       PRES   REMARKS
EDENTON        CLOUDY    27  20  75 N10G20    30.50R WCI  17
ELIZABETH CITY FAIR      26  17  68 N21       30.50R WCI  12
KITTY HAWK     CLOUDY    28  20  73 N13G23    30.45R WCI  17
MANTEO         CLOUDY    28  20  73 N28       30.47R WCI  12

$$

NCZ045>047-081-094-103-104-061400-
CENTRAL COAST

CITY           SKY/WX    TMP DP  RH WIND       PRES   REMARKS
FRISCO         CLOUDY    31  24  75 N16G30    30.42R WCI  20
SWANQUARTER      N/A     28 N/A N/A N15G29    30.41S WCI  17

$$

NCZ095-097-098-100-101-061400-
SOUTHERN COAST

CITY           SKY/WX    TMP DP  RH WIND       PRES   REMARKS
BEAUFORT       CLOUDY    31  25  78 MISG      30.42R
CEDAR ISLAND     N/A    N/A N/A N/A N20G31    30.47R
JACKSONVILLE   CLOUDY    31  22  69 NE20      30.44R WCI  19
PINEY ISLAND     N/A    N/A N/A N/A MISG      30.43R
WILMINGTON     CLOUDY    32  19  58 NE18G25   30.43R


$$

NCZ011>013-027>030-043-044-078>080-089-090>093-098-061400-
COASTAL PLAIN

CITY           SKY/WX    TMP DP  RH WIND       PRES   REMARKS
AHOSKIE        SUNNY     22  11  64 N12G18    30.54R WCI  10
CLINTON        CLOUDY    30  17  58 N14       30.48R WCI  19
ELIZABETHTOWN  CLOUDY    32  20  61 NE3       30.45R
GOLDSBORO      CLOUDY    26  17  68 N18       30.47R WCI  13
GREENVILLE     MOSUNNY   27  16  63 N15G23    30.50R WCI  15
HAVELOCK       CLOUDY    31  20  63 NE22G28   30.45R WCI  18
KENANSVILLE    CLOUDY    29  14  53 N14       30.47R WCI  18
KINSTON        PTSUNNY   27  16  63 N17G23    30.49R WCI  14
NEW BERN       CLOUDY    30  21  69 N16       30.46R WCI  19
RICHLANDS      CLOUDY    28  16  59 N12G22    30.45R WCI  18
ROCKY MOUNT    SUNNY     24  11  57 N14       30.52R WCI  12
WASHINGTON     CLOUDY    27  18  70 NE13G22   30.49R WCI  16
WHITEVILLE     CLOUDY    33  22  63 NE9       30.44R

$$

AMZ130-135-150-152-154-156-158-170-250-252-270-ANZ085-086-088-633-658-670-061400-
MARINE OBSERVATIONS

STATION/POSITION TIME  TEMP    WIND        PRES    WAVE   SWELL
                       AIR SEA DIR/SP/G            HT/PER HT/PER
                 (UTC) (F)     (DEG/KT/KT) (MB)    (FT/S) (FT/S)
CHESAPEAKE LIGHT 1200   23     360/ 24/ 26 1032.5
64 E VA BEACH    1250   33 52   10/ 23/ 29 1029.4   10/ 9   7/ 9
DUCK             1200   27 35   10/ 22/ 28 1029.7
2 E DUCK         1211      35                N/A     9/ 8   2/11
10 NE DUCK       1222      37                N/A    10/ 8   2/11
OREGON INLET     1200   29 39  350/ 19/ 26 1030.1
HATTERAS CG      1200      46   10/ 28/ 33 1029.1
CAPE LOOKOUT     1300           10/ 21/ 29 1029.7
BEAUFORT LAB     1200   32 48   20/ 16/ 21 1028.6
27 SE WRIGHTSVLE NOT AVBL
5 SE WRIGHTSVLE  NOT AVBL
225 S CAPE HAT   1250   65 72   10/ 23/ 29 1021.0    6/ 7   2/ 9
41 SE CHARLESTON 1250   47 68   30/ 25/ 31 1025.7   11/ 8

$$



USA.gov is the U.S. government's official web portal to all federal, state and local government web resources and services.